PRIVATE WETTERSTATION BILLIGHEIM-ALLFELD                       ZURCK
Wetterdaten: Dienstag, 02.05.2017
Datum Zeit Temp. A. Temp. A. min Temp. A. max Feuchte A. Luftdruck Regen Wind Richtung Richtung Sonnenschein ET Solar Taupunkt Windchill Windben Empfang
02.05.2017 00:00 6,7 C 6,7 C 6,7 C 91 % 1014,6 hPa 0,0 l/m 0,0 km/h (0 Bft) N 0 0 min 0,000 mm 0 W/m 5,3 C 6,7 C 0,0 km/h (0 Bft) 100 %
02.05.2017 00:10 6,7 C 6,7 C 6,7 C 91 % 1014,6 hPa 0,0 l/m 0,0 km/h (0 Bft) N 0 0 min 0,000 mm 0 W/m 5,3 C 6,7 C 0,0 km/h (0 Bft) 100 %
02.05.2017 00:20 6,7 C 6,7 C 6,7 C 91 % 1014,7 hPa 0,2 l/m 0,0 km/h (0 Bft) N 0 0 min 0,000 mm 0 W/m 5,3 C 6,7 C 0,0 km/h (0 Bft) 100 %
02.05.2017 00:30 6,7 C 6,7 C 6,7 C 91 % 1014,7 hPa 0,0 l/m 0,0 km/h (0 Bft) N 0 0 min 0,000 mm 0 W/m 5,3 C 6,7 C 0,0 km/h (0 Bft) 99 %
02.05.2017 00:40 6,7 C 6,7 C 6,7 C 91 % 1014,8 hPa 0,2 l/m 0,0 km/h (0 Bft) W-SW 247 0 min 0,000 mm 0 W/m 5,3 C 6,7 C 1,6 km/h (1 Bft) 87 %
02.05.2017 00:50 6,8 C 6,7 C 6,8 C 91 % 1014,8 hPa 0,4 l/m 0,0 km/h (0 Bft) W-SW 247 0 min 0,000 mm 0 W/m 5,4 C 6,8 C 1,6 km/h (1 Bft) 98 %
02.05.2017 01:00 6,8 C 6,8 C 6,8 C 91 % 1014,7 hPa 0,2 l/m 0,0 km/h (0 Bft) W 270 0 min 0,000 mm 0 W/m 5,4 C 6,8 C 4,8 km/h (1 Bft) 97 %
02.05.2017 01:10 6,9 C 6,8 C 6,9 C 91 % 1014,7 hPa 0,2 l/m 0,0 km/h (0 Bft) W 270 0 min 0,000 mm 0 W/m 5,5 C 6,9 C 1,6 km/h (1 Bft) 98 %
02.05.2017 01:20 6,9 C 6,9 C 6,9 C 91 % 1014,6 hPa 0,4 l/m 0,0 km/h (0 Bft) W 270 0 min 0,000 mm 0 W/m 5,5 C 6,9 C 3,2 km/h (1 Bft) 97 %
02.05.2017 01:30 7,0 C 6,9 C 7,0 C 91 % 1014,6 hPa 0,2 l/m 3,2 km/h (1 Bft) W 270 0 min 0,000 mm 0 W/m 5,6 C 7,0 C 11,3 km/h (2 Bft) 98 %
02.05.2017 01:40 7,0 C 6,9 C 7,0 C 91 % 1014,6 hPa 0,2 l/m 3,2 km/h (1 Bft) W 270 0 min 0,000 mm 0 W/m 5,6 C 7,0 C 9,7 km/h (2 Bft) 98 %
02.05.2017 01:50 7,0 C 7,0 C 7,1 C 91 % 1014,6 hPa 0,4 l/m 3,2 km/h (1 Bft) W-SW 247 0 min 0,000 mm 0 W/m 5,6 C 7,0 C 9,7 km/h (2 Bft) 98 %
02.05.2017 02:00 7,0 C 7,0 C 7,1 C 91 % 1014,6 hPa 0,4 l/m 4,8 km/h (1 Bft) W 270 0 min 0,000 mm 0 W/m 5,6 C 7,0 C 16,1 km/h (3 Bft) 97 %
02.05.2017 02:10 7,0 C 7,0 C 7,1 C 91 % 1014,5 hPa 0,2 l/m 3,2 km/h (1 Bft) W 270 0 min 0,000 mm 0 W/m 5,6 C 7,0 C 9,7 km/h (2 Bft) 97 %
02.05.2017 02:20 7,0 C 7,0 C 7,0 C 91 % 1014,6 hPa 0,4 l/m 3,2 km/h (1 Bft) W-SW 247 0 min 0,000 mm 0 W/m 5,6 C 7,0 C 9,7 km/h (2 Bft) 98 %
02.05.2017 02:30 6,9 C 6,9 C 7,0 C 91 % 1014,5 hPa 0,2 l/m 4,8 km/h (1 Bft) W-SW 247 0 min 0,000 mm 0 W/m 5,5 C 6,9 C 9,7 km/h (2 Bft) 97 %
02.05.2017 02:40 6,9 C 6,9 C 6,9 C 91 % 1014,4 hPa 0,4 l/m 4,8 km/h (1 Bft) W-SW 247 0 min 0,000 mm 0 W/m 5,5 C 6,9 C 11,3 km/h (2 Bft) 98 %
02.05.2017 02:50 6,9 C 6,9 C 6,9 C 91 % 1014,3 hPa 0,2 l/m 4,8 km/h (1 Bft) W-SW 247 0 min 0,000 mm 0 W/m 5,5 C 6,9 C 14,5 km/h (3 Bft) 97 %
02.05.2017 03:00 6,9 C 6,9 C 6,9 C 91 % 1014,2 hPa 0,4 l/m 4,8 km/h (1 Bft) W-SW 247 0 min 0,000 mm 0 W/m 5,5 C 6,9 C 11,3 km/h (2 Bft) 97 %
02.05.2017 03:10 6,9 C 6,9 C 6,9 C 91 % 1014,2 hPa 0,2 l/m 4,8 km/h (1 Bft) W-SW 247 0 min 0,000 mm 0 W/m 5,5 C 6,9 C 11,3 km/h (2 Bft) 98 %
02.05.2017 03:20 6,9 C 6,9 C 6,9 C 91 % 1014,2 hPa 0,4 l/m 1,6 km/h (1 Bft) W-SW 247 0 min 0,000 mm 0 W/m 5,5 C 6,9 C 8,0 km/h (2 Bft) 97 %
02.05.2017 03:30 6,8 C 6,8 C 6,9 C 91 % 1014,1 hPa 0,4 l/m 0,0 km/h (0 Bft) W-SW 247 0 min 0,000 mm 0 W/m 5,4 C 6,8 C 8,0 km/h (2 Bft) 98 %
02.05.2017 03:40 6,8 C 6,8 C 6,8 C 91 % 1014,1 hPa 0,4 l/m 1,6 km/h (1 Bft) SW 225 0 min 0,000 mm 0 W/m 5,4 C 6,8 C 8,0 km/h (2 Bft) 97 %
02.05.2017 03:50 6,8 C 6,8 C 6,8 C 91 % 1014,1 hPa 0,4 l/m 3,2 km/h (1 Bft) W-SW 247 0 min 0,000 mm 0 W/m 5,4 C 6,8 C 11,3 km/h (2 Bft) 98 %
02.05.2017 04:00 6,8 C 6,8 C 6,8 C 91 % 1014,1 hPa 0,4 l/m 0,0 km/h (0 Bft) W 270 0 min 0,000 mm 0 W/m 5,4 C 6,8 C 1,6 km/h (1 Bft) 98 %
02.05.2017 04:10 6,8 C 6,8 C 6,8 C 91 % 1014,0 hPa 0,4 l/m 3,2 km/h (1 Bft) W 270 0 min 0,000 mm 0 W/m 5,4 C 6,8 C 9,7 km/h (2 Bft) 97 %
02.05.2017 04:20 6,8 C 6,8 C 6,8 C 91 % 1013,9 hPa 0,4 l/m 4,8 km/h (1 Bft) W 270 0 min 0,000 mm 0 W/m 5,4 C 6,8 C 11,3 km/h (2 Bft) 98 %
02.05.2017 04:30 6,8 C 6,8 C 6,8 C 91 % 1013,9 hPa 0,4 l/m 4,8 km/h (1 Bft) W 270 0 min 0,000 mm 0 W/m 5,4 C 6,8 C 11,3 km/h (2 Bft) 97 %
02.05.2017 04:40 6,8 C 6,8 C 6,8 C 91 % 1013,9 hPa 0,4 l/m 3,2 km/h (1 Bft) W-SW 247 0 min 0,000 mm 0 W/m 5,4 C 6,8 C 11,3 km/h (2 Bft) 98 %
02.05.2017 04:50 6,8 C 6,8 C 6,8 C 91 % 1013,8 hPa 0,4 l/m 4,8 km/h (1 Bft) W-SW 247 0 min 0,000 mm 0 W/m 5,4 C 6,8 C 14,5 km/h (3 Bft) 97 %
02.05.2017 05:00 6,7 C 6,7 C 6,8 C 92 % 1013,8 hPa 0,4 l/m 4,8 km/h (1 Bft) W 270 0 min 0,000 mm 0 W/m 5,5 C 6,7 C 12,9 km/h (3 Bft) 98 %
02.05.2017 05:10 6,6 C 6,6 C 6,7 C 91 % 1013,8 hPa 0,4 l/m 4,8 km/h (1 Bft) W 270 0 min 0,000 mm 0 W/m 5,2 C 6,6 C 14,5 km/h (3 Bft) 97 %
02.05.2017 05:20 6,6 C 6,6 C 6,7 C 91 % 1013,7 hPa 0,6 l/m 4,8 km/h (1 Bft) W-NW 292 0 min 0,000 mm 0 W/m 5,2 C 6,6 C 16,1 km/h (3 Bft) 97 %
02.05.2017 05:30 6,5 C 6,5 C 6,6 C 92 % 1013,7 hPa 0,4 l/m 4,8 km/h (1 Bft) W 270 0 min 0,000 mm 0 W/m 5,3 C 6,5 C 11,3 km/h (2 Bft) 98 %
02.05.2017 05:40 6,5 C 6,4 C 6,5 C 92 % 1013,7 hPa 0,6 l/m 3,2 km/h (1 Bft) W 270 0 min 0,000 mm 0 W/m 5,3 C 6,5 C 9,7 km/h (2 Bft) 97 %
02.05.2017 05:50 6,5 C 6,4 C 6,5 C 92 % 1013,6 hPa 0,4 l/m 3,2 km/h (1 Bft) W 270 0 min 0,000 mm 0 W/m 5,3 C 6,5 C 9,7 km/h (2 Bft) 98 %
02.05.2017 06:00 6,4 C 6,4 C 6,5 C 92 % 1013,6 hPa 0,8 l/m 6,4 km/h (2 Bft) W-NW 292 0 min 0,000 mm 0 W/m 5,2 C 6,4 C 17,7 km/h (3 Bft) 97 %
02.05.2017 06:10 6,4 C 6,3 C 6,4 C 92 % 1013,4 hPa 0,4 l/m 6,4 km/h (2 Bft) W-NW 292 0 min 0,000 mm 0 W/m 5,2 C 6,4 C 16,1 km/h (3 Bft) 98 %
02.05.2017 06:20 6,4 C 6,3 C 6,4 C 92 % 1013,5 hPa 0,4 l/m 4,8 km/h (1 Bft) W 270 0 min 0,000 mm 0 W/m 5,2 C 6,4 C 11,3 km/h (2 Bft) 97 %
02.05.2017 06:30 6,4 C 6,3 C 6,4 C 92 % 1013,5 hPa 0,4 l/m 3,2 km/h (1 Bft) W 270 0 min 0,000 mm 5 W/m 5,2 C 6,4 C 9,7 km/h (2 Bft) 98 %
02.05.2017 06:40 6,4 C 6,4 C 6,4 C 92 % 1013,5 hPa 0,4 l/m 1,6 km/h (1 Bft) W 270 0 min 0,000 mm 9 W/m 5,2 C 6,4 C 9,7 km/h (2 Bft) 98 %
02.05.2017 06:50 6,4 C 6,4 C 6,4 C 92 % 1013,5 hPa 0,2 l/m 4,8 km/h (1 Bft) W 270 0 min 0,000 mm 11 W/m 5,2 C 6,4 C 14,5 km/h (3 Bft) 97 %
02.05.2017 07:00 6,5 C 6,4 C 6,5 C 92 % 1013,6 hPa 0,6 l/m 4,8 km/h (1 Bft) W 270 0 min 0,000 mm 12 W/m 5,3 C 6,5 C 14,5 km/h (3 Bft) 98 %
02.05.2017 07:10 6,5 C 6,5 C 6,5 C 92 % 1013,4 hPa 0,2 l/m 6,4 km/h (2 Bft) W-NW 292 0 min 0,000 mm 12 W/m 5,3 C 6,5 C 16,1 km/h (3 Bft) 97 %
02.05.2017 07:20 6,5 C 6,4 C 6,5 C 92 % 1013,5 hPa 0,4 l/m 4,8 km/h (1 Bft) W 270 0 min 0,000 mm 12 W/m 5,3 C 6,5 C 16,1 km/h (3 Bft) 98 %
02.05.2017 07:30 6,4 C 6,4 C 6,5 C 92 % 1013,4 hPa 0,2 l/m 4,8 km/h (1 Bft) W 270 0 min 0,000 mm 19 W/m 5,2 C 6,4 C 11,3 km/h (2 Bft) 97 %
02.05.2017 07:40 6,5 C 6,4 C 6,5 C 92 % 1013,4 hPa 0,4 l/m 4,8 km/h (1 Bft) W-SW 247 0 min 0,000 mm 23 W/m 5,3 C 6,5 C 12,9 km/h (3 Bft) 87 %
02.05.2017 07:50 6,5 C 6,5 C 6,5 C 92 % 1013,4 hPa 0,2 l/m 4,8 km/h (1 Bft) W 270 0 min 0,000 mm 25 W/m 5,3 C 6,5 C 11,3 km/h (2 Bft) 98 %
02.05.2017 08:00 6,6 C 6,5 C 6,6 C 91 % 1013,4 hPa 0,2 l/m 3,2 km/h (1 Bft) W-SW 247 0 min 0,000 mm 33 W/m 5,2 C 6,6 C 8,0 km/h (2 Bft) 97 %
02.05.2017 08:10 6,6 C 6,6 C 6,6 C 91 % 1013,4 hPa 0,4 l/m 3,2 km/h (1 Bft) W 270 0 min 0,000 mm 33 W/m 5,2 C 6,6 C 11,3 km/h (2 Bft) 98 %
02.05.2017 08:20 6,6 C 6,6 C 6,6 C 91 % 1013,3 hPa 0,2 l/m 4,8 km/h (1 Bft) W-SW 247 0 min 0,000 mm 37 W/m 5,2 C 6,6 C 14,5 km/h (3 Bft) 97 %
02.05.2017 08:30 6,6 C 6,6 C 6,6 C 91 % 1013,3 hPa 0,2 l/m 6,4 km/h (2 Bft) SW 225 0 min 0,000 mm 47 W/m 5,2 C 6,6 C 16,1 km/h (3 Bft) 98 %
02.05.2017 08:40 6,7 C 6,6 C 6,7 C 91 % 1013,2 hPa 0,2 l/m 6,4 km/h (2 Bft) SW 225 0 min 0,000 mm 54 W/m 5,3 C 6,7 C 16,1 km/h (3 Bft) 97 %
02.05.2017 08:50 6,7 C 6,7 C 6,7 C 92 % 1013,3 hPa 0,2 l/m 4,8 km/h (1 Bft) SW 225 0 min 0,000 mm 54 W/m 5,5 C 6,7 C 17,7 km/h (3 Bft) 98 %
02.05.2017 09:00 6,7 C 6,7 C 6,8 C 92 % 1013,3 hPa 0,2 l/m 8,0 km/h (2 Bft) W-SW 247 0 min 0,025 mm 51 W/m 5,5 C 5,4 C 19,3 km/h (3 Bft) 99 %
02.05.2017 09:10 6,7 C 6,7 C 6,8 C 92 % 1013,3 hPa 0,2 l/m 6,4 km/h (2 Bft) W-SW 247 0 min 0,000 mm 46 W/m 5,5 C 6,7 C 16,1 km/h (3 Bft) 97 %
02.05.2017 09:20 6,8 C 6,7 C 6,8 C 92 % 1013,3 hPa 0,0 l/m 8,0 km/h (2 Bft) W-SW 247 0 min 0,000 mm 62 W/m 5,6 C 5,5 C 22,5 km/h (4 Bft) 98 %
02.05.2017 09:30 6,8 C 6,8 C 6,8 C 92 % 1013,2 hPa 0,2 l/m 8,0 km/h (2 Bft) W-SW 247 0 min 0,000 mm 72 W/m 5,6 C 5,5 C 20,9 km/h (4 Bft) 97 %
02.05.2017 09:40 6,8 C 6,8 C 6,8 C 92 % 1013,3 hPa 0,2 l/m 6,4 km/h (2 Bft) W 270 0 min 0,000 mm 67 W/m 5,6 C 6,8 C 19,3 km/h (3 Bft) 98 %
02.05.2017 09:50 6,8 C 6,8 C 6,8 C 92 % 1013,3 hPa 0,0 l/m 6,4 km/h (2 Bft) W 270 0 min 0,000 mm 81 W/m 5,6 C 6,8 C 20,9 km/h (4 Bft) 98 %
02.05.2017 10:00 6,9 C 6,8 C 6,9 C 91 % 1013,3 hPa 0,2 l/m 6,4 km/h (2 Bft) SW 225 0 min 0,025 mm 107 W/m 5,5 C 6,9 C 20,9 km/h (4 Bft) 98 %
02.05.2017 10:10 7,0 C 6,9 C 7,0 C 91 % 1013,4 hPa 0,2 l/m 4,8 km/h (1 Bft) W-SW 247 0 min 0,000 mm 104 W/m 5,6 C 7,0 C 14,5 km/h (3 Bft) 98 %
02.05.2017 10:20 7,1 C 7,0 C 7,1 C 91 % 1013,4 hPa 0,2 l/m 4,8 km/h (1 Bft) W 270 0 min 0,000 mm 120 W/m 5,7 C 7,1 C 16,1 km/h (3 Bft) 97 %
02.05.2017 10:30 7,2 C 7,1 C 7,2 C 92 % 1013,5 hPa 0,2 l/m 8,0 km/h (2 Bft) W 270 0 min 0,000 mm 135 W/m 6,0 C 5,9 C 17,7 km/h (3 Bft) 97 %
02.05.2017 10:40 7,3 C 7,2 C 7,3 C 92 % 1013,5 hPa 0,0 l/m 8,0 km/h (2 Bft) W-SW 247 10 min 0,000 mm 188 W/m 6,1 C 6,0 C 17,7 km/h (3 Bft) 97 %
02.05.2017 10:50 7,5 C 7,3 C 7,5 C 91 % 1013,4 hPa 0,0 l/m 8,0 km/h (2 Bft) W-SW 247 10 min 0,000 mm 178 W/m 6,1 C 6,2 C 16,1 km/h (3 Bft) 97 %
02.05.2017 11:00 7,5 C 7,5 C 7,5 C 92 % 1013,4 hPa 0,0 l/m 6,4 km/h (2 Bft) W-SW 247 10 min 0,051 mm 155 W/m 6,3 C 7,5 C 19,3 km/h (3 Bft) 98 %
02.05.2017 11:10 7,4 C 7,4 C 7,5 C 91 % 1013,4 hPa 0,0 l/m 8,0 km/h (2 Bft) W-SW 247 10 min 0,000 mm 178 W/m 6,0 C 6,1 C 19,3 km/h (3 Bft) 97 %
02.05.2017 11:20 7,6 C 7,4 C 7,6 C 92 % 1013,4 hPa 0,0 l/m 6,4 km/h (2 Bft) W 270 10 min 0,000 mm 178 W/m 6,4 C 7,6 C 17,7 km/h (3 Bft) 98 %
02.05.2017 11:30 7,7 C 7,6 C 7,7 C 92 % 1013,4 hPa 0,0 l/m 4,8 km/h (1 Bft) W-SW 247 10 min 0,000 mm 169 W/m 6,5 C 7,7 C 16,1 km/h (3 Bft) 97 %
02.05.2017 11:40 7,7 C 7,7 C 7,7 C 92 % 1013,5 hPa 0,0 l/m 8,0 km/h (2 Bft) W 270 0 min 0,000 mm 135 W/m 6,5 C 6,4 C 19,3 km/h (3 Bft) 98 %
02.05.2017 11:50 7,7 C 7,7 C 7,7 C 92 % 1013,5 hPa 0,0 l/m 8,0 km/h (2 Bft) W-SW 247 0 min 0,000 mm 146 W/m 6,5 C 6,4 C 17,7 km/h (3 Bft) 97 %
02.05.2017 12:00 7,8 C 7,7 C 7,8 C 92 % 1013,5 hPa 0,0 l/m 8,0 km/h (2 Bft) W-SW 247 0 min 0,051 mm 134 W/m 6,6 C 6,5 C 16,1 km/h (3 Bft) 98 %
02.05.2017 12:10 7,9 C 7,8 C 7,9 C 92 % 1013,5 hPa 0,0 l/m 6,4 km/h (2 Bft) W-SW 247 0 min 0,000 mm 141 W/m 6,7 C 7,9 C 16,1 km/h (3 Bft) 99 %
02.05.2017 12:20 8,0 C 7,9 C 8,0 C 92 % 1013,5 hPa 0,0 l/m 4,8 km/h (1 Bft) SW 225 0 min 0,000 mm 148 W/m 6,8 C 8,0 C 19,3 km/h (3 Bft) 99 %
02.05.2017 12:30 8,1 C 8,0 C 8,1 C 91 % 1013,5 hPa 0,0 l/m 6,4 km/h (2 Bft) SW 225 0 min 0,000 mm 132 W/m 6,7 C 8,1 C 19,3 km/h (3 Bft) 100 %
02.05.2017 12:40 8,1 C 8,1 C 8,1 C 91 % 1013,5 hPa 0,0 l/m 6,4 km/h (2 Bft) W-SW 247 0 min 0,000 mm 132 W/m 6,7 C 8,1 C 17,7 km/h (3 Bft) 100 %
02.05.2017 12:50 8,2 C 8,1 C 8,2 C 91 % 1013,5 hPa 0,0 l/m 6,4 km/h (2 Bft) W-SW 247 0 min 0,000 mm 139 W/m 6,8 C 8,2 C 17,7 km/h (3 Bft) 100 %
02.05.2017 13:00 8,4 C 8,2 C 8,4 C 91 % 1013,5 hPa 0,0 l/m 4,8 km/h (1 Bft) W-SW 247 10 min 0,076 mm 190 W/m 7,0 C 8,4 C 14,5 km/h (3 Bft) 100 %
02.05.2017 13:10 8,6 C 8,4 C 8,6 C 91 % 1013,6 hPa 0,0 l/m 3,2 km/h (1 Bft) W-SW 247 10 min 0,000 mm 207 W/m 7,2 C 8,6 C 16,1 km/h (3 Bft) 100 %
02.05.2017 13:20 8,8 C 8,6 C 8,8 C 91 % 1013,6 hPa 0,0 l/m 4,8 km/h (1 Bft) W-SW 247 10 min 0,000 mm 290 W/m 7,4 C 8,8 C 17,7 km/h (3 Bft) 100 %
02.05.2017 13:30 9,2 C 8,8 C 9,2 C 91 % 1013,7 hPa 0,0 l/m 4,8 km/h (1 Bft) W 270 10 min 0,000 mm 322 W/m 7,8 C 9,2 C 17,7 km/h (3 Bft) 100 %
02.05.2017 13:40 9,4 C 9,2 C 9,4 C 91 % 1013,7 hPa 0,0 l/m 6,4 km/h (2 Bft) W-NW 292 10 min 0,000 mm 239 W/m 8,0 C 9,4 C 17,7 km/h (3 Bft) 100 %
02.05.2017 13:50 9,3 C 9,3 C 9,4 C 90 % 1013,8 hPa 0,0 l/m 11,3 km/h (2 Bft) W-NW 292 10 min 0,000 mm 204 W/m 7,7 C 6,1 C 20,9 km/h (4 Bft) 100 %
02.05.2017 14:00 9,4 C 9,3 C 9,4 C 91 % 1013,9 hPa 0,0 l/m 4,8 km/h (1 Bft) W 270 10 min 0,102 mm 190 W/m 8,0 C 9,4 C 19,3 km/h (3 Bft) 100 %
02.05.2017 14:10 9,5 C 9,4 C 9,5 C 91 % 1014,0 hPa 0,0 l/m 4,8 km/h (1 Bft) W-NW 292 10 min 0,000 mm 214 W/m 8,1 C 9,5 C 14,5 km/h (3 Bft) 100 %
02.05.2017 14:20 9,8 C 9,5 C 9,8 C 91 % 1014,1 hPa 0,2 l/m 3,2 km/h (1 Bft) W-NW 292 10 min 0,000 mm 329 W/m 8,4 C 9,8 C 11,3 km/h (2 Bft) 100 %
02.05.2017 14:30 10,0 C 9,8 C 10,0 C 90 % 1014,0 hPa 0,0 l/m 8,0 km/h (2 Bft) W-NW 292 10 min 0,000 mm 338 W/m 8,4 C 8,9 C 20,9 km/h (4 Bft) 99 %
02.05.2017 14:40 10,3 C 10,0 C 10,3 C 90 % 1014,0 hPa 0,0 l/m 8,0 km/h (2 Bft) NW 315 10 min 0,000 mm 306 W/m 8,7 C 9,2 C 19,3 km/h (3 Bft) 100 %
02.05.2017 14:50 10,2 C 10,2 C 10,3 C 89 % 1014,0 hPa 0,0 l/m 8,0 km/h (2 Bft) W-NW 292 10 min 0,000 mm 257 W/m 8,5 C 9,1 C 19,3 km/h (3 Bft) 100 %
02.05.2017 15:00 10,4 C 10,2 C 10,4 C 89 % 1014,0 hPa 0,0 l/m 6,4 km/h (2 Bft) W-NW 292 10 min 0,127 mm 329 W/m 8,7 C 10,4 C 17,7 km/h (3 Bft) 100 %
02.05.2017 15:10 10,6 C 10,4 C 10,6 C 88 % 1013,9 hPa 0,0 l/m 6,4 km/h (2 Bft) W-NW 292 10 min 0,000 mm 364 W/m 8,7 C 10,6 C 17,7 km/h (3 Bft) 100 %
02.05.2017 15:20 11,0 C 10,6 C 11,0 C 87 % 1014,0 hPa 0,0 l/m 8,0 km/h (2 Bft) W-NW 292 10 min 0,000 mm 431 W/m 8,9 C 9,9 C 20,9 km/h (4 Bft) 100 %
02.05.2017 15:30 11,4 C 11,0 C 11,4 C 86 % 1014,1 hPa 0,0 l/m 8,0 km/h (2 Bft) W 270 10 min 0,000 mm 432 W/m 9,1 C 10,3 C 25,7 km/h (4 Bft) 100 %
02.05.2017 15:40 11,8 C 11,4 C 11,8 C 82 % 1014,1 hPa 0,0 l/m 9,7 km/h (2 Bft) W 270 10 min 0,000 mm 443 W/m 8,8 C 9,7 C 19,3 km/h (3 Bft) 100 %
02.05.2017 15:50 11,5 C 11,5 C 11,8 C 78 % 1014,1 hPa 0,0 l/m 11,3 km/h (2 Bft) W 270 10 min 0,000 mm 309 W/m 7,8 C 8,6 C 27,4 km/h (4 Bft) 100 %
02.05.2017 16:00 11,2 C 11,2 C 11,5 C 81 % 1014,1 hPa 0,0 l/m 11,3 km/h (2 Bft) W-NW 292 10 min 0,178 mm 171 W/m 8,1 C 8,2 C 22,5 km/h (4 Bft) 100 %
02.05.2017 16:10 11,1 C 11,1 C 11,2 C 83 % 1014,2 hPa 0,0 l/m 4,8 km/h (1 Bft) W-NW 292 10 min 0,000 mm 218 W/m 8,3 C 11,1 C 11,3 km/h (2 Bft) 100 %
02.05.2017 16:30 10,9 C 10,9 C 11,2 C 81 % 1014,3 hPa 0,0 l/m 8,5 km/h (2 Bft) W 281 0 min 0,000 mm 111 W/m 7,8 C 9,5 C 19,3 km/h (3 Bft) 100 %
02.05.2017 16:40 10,8 C 10,8 C 10,9 C 83 % 1014,2 hPa 0,0 l/m 4,8 km/h (1 Bft) NW 313 10 min 0,000 mm 200 W/m 8,0 C 10,8 C 14,5 km/h (3 Bft) 100 %
02.05.2017 16:50 10,9 C 10,8 C 10,9 C 82 % 1014,4 hPa 0,0 l/m 4,9 km/h (1 Bft) NW 320 10 min 0,000 mm 236 W/m 7,9 C 10,9 C 14,5 km/h (3 Bft) 100 %
02.05.2017 17:00 11,1 C 10,9 C 11,1 C 81 % 1014,4 hPa 0,0 l/m 8,5 km/h (2 Bft) NW 321 10 min 0,102 mm 216 W/m 8,0 C 9,7 C 22,5 km/h (4 Bft) 100 %
02.05.2017 17:10 11,2 C 11,1 C 11,2 C 81 % 1014,5 hPa 0,0 l/m 7,4 km/h (2 Bft) NW 304 10 min 0,000 mm 185 W/m 8,1 C 10,5 C 16,1 km/h (3 Bft) 100 %
02.05.2017 17:20 11,1 C 11,1 C 11,2 C 79 % 1014,5 hPa 0,0 l/m 8,9 km/h (2 Bft) W-NW 299 10 min 0,000 mm 188 W/m 7,6 C 9,4 C 17,7 km/h (3 Bft) 100 %
02.05.2017 17:30 11,2 C 11,1 C 11,2 C 80 % 1014,5 hPa 0,0 l/m 6,9 km/h (2 Bft) NW 317 10 min 0,000 mm 213 W/m 7,9 C 10,9 C 14,5 km/h (3 Bft) 100 %
02.05.2017 17:40 11,1 C 11,1 C 11,2 C 79 % 1014,5 hPa 0,0 l/m 5,6 km/h (1 Bft) W 261 10 min 0,000 mm 197 W/m 7,6 C 11,1 C 16,1 km/h (3 Bft) 100 %
02.05.2017 17:50 11,1 C 11,1 C 11,2 C 80 % 1014,7 hPa 0,0 l/m 4,1 km/h (1 Bft) W-NW 289 10 min 0,000 mm 176 W/m 7,8 C 11,1 C 11,3 km/h (2 Bft) 100 %
02.05.2017 18:00 11,1 C 11,1 C 11,1 C 79 % 1014,7 hPa 0,0 l/m 3,0 km/h (1 Bft) NW 317 0 min 0,101 mm 128 W/m 7,6 C 11,1 C 9,7 km/h (2 Bft) 100 %
02.05.2017 18:10 10,9 C 10,9 C 11,1 C 79 % 1014,7 hPa 0,0 l/m 0,6 km/h (0 Bft) W-NW 300 0 min 0,000 mm 65 W/m 7,4 C 10,9 C 6,4 km/h (2 Bft) 99 %
02.05.2017 18:20 10,8 C 10,8 C 10,9 C 79 % 1014,7 hPa 0,0 l/m 0,4 km/h (0 Bft) W 279 0 min 0,000 mm 42 W/m 7,3 C 10,8 C 6,4 km/h (2 Bft) 100 %
02.05.2017 18:30 10,6 C 10,6 C 10,8 C 82 % 1014,4 hPa 0,0 l/m 2,9 km/h (1 Bft) NW 325 0 min 0,000 mm 46 W/m 7,7 C 10,6 C 8,0 km/h (2 Bft) 100 %
02.05.2017 18:40 10,4 C 10,4 C 10,6 C 83 % 1014,5 hPa 0,0 l/m 2,4 km/h (1 Bft) N-NW 333 0 min 0,000 mm 23 W/m 7,6 C 10,4 C 8,0 km/h (2 Bft) 100 %
02.05.2017 18:50 10,3 C 10,3 C 10,4 C 83 % 1014,5 hPa 0,0 l/m 0,6 km/h (0 Bft) N-NW 345 0 min 0,000 mm 21 W/m 7,5 C 10,3 C 6,4 km/h (2 Bft) 100 %
02.05.2017 19:00 10,1 C 10,1 C 10,3 C 84 % 1014,4 hPa 0,0 l/m 0,0 km/h (0 Bft) N-NW 342 0 min 0,026 mm 25 W/m 7,5 C 10,1 C 0,0 km/h (0 Bft) 100 %
02.05.2017 19:10 10,0 C 10,0 C 10,1 C 84 % 1014,4 hPa 0,0 l/m 0,9 km/h (0 Bft) NW 309 0 min 0,000 mm 21 W/m 7,4 C 10,0 C 8,0 km/h (2 Bft) 100 %
02.05.2017 19:20 9,9 C 9,9 C 10,0 C 84 % 1014,4 hPa 0,0 l/m 4,4 km/h (1 Bft) NW 309 0 min 0,000 mm 19 W/m 7,3 C 9,9 C 17,7 km/h (3 Bft) 100 %
02.05.2017 19:30 9,8 C 9,8 C 9,9 C 84 % 1014,6 hPa 0,0 l/m 0,0 km/h (0 Bft) NW 309 0 min 0,000 mm 32 W/m 7,2 C 9,8 C 0,0 km/h (0 Bft) 100 %
02.05.2017 19:40 9,6 C 9,6 C 9,8 C 85 % 1014,8 hPa 0,0 l/m 0,0 km/h (0 Bft) NW 309 0 min 0,000 mm 21 W/m 7,2 C 9,6 C 1,6 km/h (1 Bft) 100 %
02.05.2017 19:50 9,4 C 9,4 C 9,6 C 86 % 1015,0 hPa 0,0 l/m 0,0 km/h (0 Bft) W-SW 248 0 min 0,000 mm 14 W/m 7,2 C 9,4 C 0,0 km/h (0 Bft) 100 %
02.05.2017 20:00 9,4 C 9,4 C 9,4 C 86 % 1015,0 hPa 0,0 l/m 0,0 km/h (0 Bft) W-SW 248 0 min 0,025 mm 14 W/m 7,2 C 9,4 C 1,6 km/h (1 Bft) 100 %
02.05.2017 20:10 9,3 C 9,3 C 9,4 C 86 % 1015,0 hPa 0,0 l/m 0,0 km/h (0 Bft) W-SW 248 0 min 0,000 mm 9 W/m 7,1 C 9,3 C 0,0 km/h (0 Bft) 100 %
02.05.2017 20:20 9,2 C 9,2 C 9,3 C 86 % 1015,1 hPa 0,0 l/m 0,0 km/h (0 Bft) W-SW 248 0 min 0,000 mm 7 W/m 7,0 C 9,2 C 0,0 km/h (0 Bft) 100 %
02.05.2017 20:30 9,1 C 9,1 C 9,2 C 86 % 1015,2 hPa 0,0 l/m 0,0 km/h (0 Bft) W-SW 248 0 min 0,000 mm 0 W/m 6,9 C 9,1 C 0,0 km/h (0 Bft) 100 %
02.05.2017 20:40 8,9 C 8,9 C 9,1 C 87 % 1015,2 hPa 0,0 l/m 0,0 km/h (0 Bft) W-SW 248 0 min 0,000 mm 0 W/m 6,9 C 8,9 C 1,6 km/h (1 Bft) 100 %
02.05.2017 20:50 8,6 C 8,6 C 8,9 C 88 % 1015,4 hPa 0,0 l/m 0,0 km/h (0 Bft) W-SW 244 0 min 0,000 mm 0 W/m 6,7 C 8,6 C 0,0 km/h (0 Bft) 99 %
02.05.2017 21:00 8,4 C 8,4 C 8,6 C 88 % 1015,5 hPa 0,0 l/m 0,0 km/h (0 Bft) W-SW 243 0 min 0,000 mm 0 W/m 6,5 C 8,4 C 1,6 km/h (1 Bft) 100 %
02.05.2017 21:10 8,3 C 8,3 C 8,4 C 89 % 1015,6 hPa 0,0 l/m 0,0 km/h (0 Bft) W-SW 247 0 min 0,000 mm 0 W/m 6,6 C 8,3 C 1,6 km/h (1 Bft) 100 %
02.05.2017 21:20 8,1 C 8,1 C 8,2 C 89 % 1015,6 hPa 0,0 l/m 0,0 km/h (0 Bft) N 0 0 min 0,000 mm 0 W/m 6,4 C 8,1 C 0,0 km/h (0 Bft) 100 %
02.05.2017 21:30 8,1 C 8,1 C 8,1 C 89 % 1015,7 hPa 0,0 l/m 0,0 km/h (0 Bft) N 0 0 min 0,000 mm 0 W/m 6,4 C 8,1 C 0,0 km/h (0 Bft) 100 %
02.05.2017 21:40 7,9 C 7,9 C 8,1 C 89 % 1015,7 hPa 0,0 l/m 0,0 km/h (0 Bft) SW 225 0 min 0,000 mm 0 W/m 6,2 C 7,9 C 1,6 km/h (1 Bft) 100 %
02.05.2017 21:50 7,8 C 7,8 C 7,9 C 89 % 1015,8 hPa 0,0 l/m 0,0 km/h (0 Bft) N 0 0 min 0,000 mm 0 W/m 6,1 C 7,8 C 0,0 km/h (0 Bft) 100 %
02.05.2017 22:00 7,9 C 7,8 C 7,9 C 90 % 1015,7 hPa 0,0 l/m 0,0 km/h (0 Bft) N 0 0 min 0,000 mm 0 W/m 6,4 C 7,9 C 0,0 km/h (0 Bft) 100 %
02.05.2017 22:10 8,0 C 7,9 C 8,0 C 90 % 1015,8 hPa 0,0 l/m 0,0 km/h (0 Bft) SW 225 0 min 0,000 mm 0 W/m 6,5 C 8,0 C 1,6 km/h (1 Bft) 100 %
02.05.2017 22:20 7,8 C 7,8 C 8,0 C 89 % 1016,0 hPa 0,0 l/m 0,0 km/h (0 Bft) N 0 0 min 0,000 mm 0 W/m 6,1 C 7,8 C 0,0 km/h (0 Bft) 100 %
02.05.2017 22:30 7,6 C 7,6 C 7,8 C 90 % 1016,1 hPa 0,0 l/m 0,0 km/h (0 Bft) N 0 0 min 0,000 mm 0 W/m 6,1 C 7,6 C 0,0 km/h (0 Bft) 100 %
02.05.2017 22:40 7,5 C 7,5 C 7,6 C 90 % 1015,9 hPa 0,0 l/m 0,0 km/h (0 Bft) N 0 0 min 0,000 mm 0 W/m 6,0 C 7,5 C 0,0 km/h (0 Bft) 100 %
02.05.2017 22:50 7,3 C 7,3 C 7,5 C 90 % 1016,0 hPa 0,0 l/m 0,0 km/h (0 Bft) N 0 0 min 0,000 mm 0 W/m 5,8 C 7,3 C 0,0 km/h (0 Bft) 99 %
02.05.2017 23:00 7,2 C 7,2 C 7,3 C 90 % 1016,1 hPa 0,0 l/m 0,0 km/h (0 Bft) N 0 0 min 0,000 mm 0 W/m 5,7 C 7,2 C 0,0 km/h (0 Bft) 100 %
02.05.2017 23:10 6,9 C 6,9 C 7,2 C 91 % 1016,2 hPa 0,0 l/m 0,0 km/h (0 Bft) N 0 0 min 0,000 mm 0 W/m 5,5 C 6,9 C 0,0 km/h (0 Bft) 100 %
02.05.2017 23:20 6,7 C 6,7 C 6,9 C 91 % 1016,2 hPa 0,0 l/m 0,0 km/h (0 Bft) N 0 0 min 0,000 mm 0 W/m 5,3 C 6,7 C 0,0 km/h (0 Bft) 100 %
02.05.2017 23:30 6,6 C 6,6 C 6,7 C 91 % 1016,4 hPa 0,0 l/m 0,0 km/h (0 Bft) N 0 0 min 0,000 mm 0 W/m 5,2 C 6,6 C 0,0 km/h (0 Bft) 100 %
02.05.2017 23:40 6,5 C 6,5 C 6,6 C 91 % 1016,5 hPa 0,0 l/m 0,0 km/h (0 Bft) N 0 0 min 0,000 mm 0 W/m 5,1 C 6,5 C 0,0 km/h (0 Bft) 100 %
02.05.2017 23:50 6,3 C 6,3 C 6,5 C 91 % 1016,4 hPa 0,0 l/m 0,0 km/h (0 Bft) N 0 0 min 0,000 mm 0 W/m 4,9 C 6,3 C 0,0 km/h (0 Bft) 100 %
_ Min-Zeit 06:10 06:10 06:10 15:50 08:40 - 00:00 - - - - - 23:50 09:00 00:00 00:40
Minimum _ 6,3 C 6,3 C 6,4 C 78 % 1013,2 hPa - 0,0 km/h (0 Bft) - - - - - 4,9 C 5,4 C 0,0 km/h (0 Bft) 87 %
_ Max-Zeit 15:40 15:50 15:40 05:00 23:40 06:00 13:50 - - 10:40 16:00 15:40 15:30 16:10 15:50 00:00
Maximum _ 11,8 C 11,5 C 11,8 C 92 % 1016,5 hPa 0,8 l/m 11,3 km/h
W-NW (2 Bft)
- - 10 min 0,178 mm 443 W/m 9,1 C 11,1 C 27,4 km/h
W (4 Bft)
100 %
Durchschnitt _ 8,1 C 8,0 C 8,1 C 89 % 1014,3 hPa #19,4 l/m 3,9 km/h (1 Bft) W - #5:40 h #0,889 mm 137 W/m 6,4 C 7,8 C 11,1 km/h (2 Bft) 99 %
PRIVATE WETTERSTATION BILLIGHEIM-ALLFELD - www.neckar-odenwald-wetter.de - Holger Sonntag